Find Local Weather

World > North America > United States > Florida

Gainesville, Florida Regional Weather

Lat: 29.67N, Lon: 82.34W
Wx Zone: FLZ036
Feedback
Expires:201810170200;;297282
ASUS42 KTBW 170116
RWRFL 
FLORIDA REGIONAL WEATHER ROUNDUP
NATIONAL WEATHER SERVICE TAMPA BAY RUSKIN FL
900 PM EDT TUE OCT 16 2018

NOTE: "FAIR" INDICATES FEW OR NO CLOUDS BELOW 12,000 FEET WITH NO
SIGNIFICANT WEATHER AND/OR OBSTRUCTIONS TO VISIBILITY.


FLZ011-016>038-118-127-128-134-139-239-170200-
NORTH FLORIDA
  
CITY           SKY/WX    TMP DP  RH WIND       PRES   REMARKS
TALLAHASSEE    FAIR      79  76  90 S3        30.10R                  
PERRY          FAIR      77  74  91 CALM      30.10S                  
LIVE OAK       PTCLDY    79  75  89 CALM      30.09R                  
CROSS CITY     FAIR      78  74  90 NW5       30.09S                  
LAKE CITY      FAIR      75  72  88 CALM      30.10R                  
GAINESVILLE    FAIR      80  73  79 E5        30.12R                  
JACKSONVILLE   FAIR      79  75  87 SE7       30.10R                  
JAX NAS        FAIR      82  78  88 SE12      30.11R                  
JAX CECIL      CLEAR     81  77  89 SE7       30.10R                  
ST AUGUSTINE   MOCLDY    80  76  87 SE10      30.12R                  
PALM COAST     FAIR      79  74  85 SE6       30.11R                  

STATION/POSITION SKY/WX   TEMP    WIND        PRES    WAVE   SWELL
                          AIR SEA DIR/SP/G            HT/PER HT/PER
                          (F)     (DEG/KT/KT) (MB)    (FT/S) (FT/S)
SHELL POINT      NOT AVBL
KEATON BEACH               81     270/  5/  6 1019.2R
CEDAR KEY                  82     310/  5/  9 1018.8R
FERNANDINA                 82 83  150/  6/  8 1020.4R
30.7N   81.3W                 82                N/A     2/12
MAYPORT                    81 83  140/  7/ 11 1020.0R
31.4N   80.9W              82 82  130/ 10/ 12 1019.5R   2/12   2/12
ST AUGUSTINE               82 84  130/ 13/ 14 1020.0R

$$

SKY/WX - Weather  TMP - Temperature  DP - Dew Point  RH - Relative Humidity
WIND - Wind Direction/Speed PRES - Barometric Pressure
Opt in/Opt out of Taboola Video Ads